Meteo Giornale » Osservazioni meteo Italia » Milano-Malpensa

ore: 23:50 - Osservazioni Meteo Milano-Malpensa
Lat. 45° 37' N Lon. 8° 44' E Alt. 234 metri s.l.m.

sereno Europe/Rome

26 °C

Sereno

Temp. 24 Ore

20 °C

33 °C

Nord

18.5 Km/h

Dew point 19 °C

Umidità 65 %

Visibilità  10 Km

Il sole sorge alle ore 06:30

Il sole tramonta alle ore 20:26

Data e Ora Cielo e Fenomeni T °C DP °C Um. % Pres. hPa Vis. km Vento km/h
Ieri h: 23:50 sereno Sereno 26 19 65 1017 10 N 18.5
Ieri h: 23:20 sereno Sereno 26 18 61 1017 10 N/NE 9.3
Ieri h: 22:50 sereno Sereno 26 18 61 1016 10 N 3.7
Ieri h: 22:20 sereno Sereno 27 17 54 1016 10 N 3.7
Ieri h: 21:50 sereno Sereno 29 16 45 1016 10 N 3.7
Ieri h: 21:20 sereno Sereno 29 16 45 1016 10 O/SO 7.4
Ieri h: 20:50 sereno Sereno 28 17 51 1015 10 N 1.8
Ieri h: 20:20 sereno Sereno 30 15 40 1015 10 S/SO 11.1
Ieri h: 19:50 sereno Sereno 31 15 37 1014 10 S/SO 11.1
Ieri h: 19:20 sereno Sereno 32 14 33 1014 10 O/SO 9.3
Ieri h: 18:50 sereno Sereno 32 13 31 1014 10 SO 13
Ieri h: 18:20 sereno Sereno 32 14 33 1015 10 O 9.3
Ieri h: 17:50 sereno Sereno 32 15 35 1015 10 O 13
Ieri h: 17:20 sereno Sereno 32 16 38 1015 10 SO 14.8
Ieri h: 16:50 sereno Sereno 33 17 38 1015 10 N 11.1
Ieri h: 16:20 sereno Sereno 32 15 35 1015 10 N 11.1
Ieri h: 15:50 sereno Sereno 33 15 33 1016 10 SO 9.3
Ieri h: 15:20 sereno Sereno 32 14 33 1016 10 N 7.4
Ieri h: 14:50 sereno Sereno 32 14 33 1016 10 S/SO 11.1
Ieri h: 14:20 sereno Sereno 31 15 37 1016 10 SO 11.1
Ieri h: 13:20 sereno Sereno 31 15 37 1017 10 NE 7.4
Ieri h: 12:50 sereno Sereno 31 15 37 1017 10 N 3.7
Ieri h: 12:20 sereno Sereno 30 16 42 1017 10 N 5.5
Ieri h: 11:20 sereno Sereno 29 16 45 1018 10 N 3.7
Ieri h: 10:50 sereno Sereno 29 16 45 1018 10 N 7.4
Ieri h: 10:20 sereno Sereno 28 17 51 1018 10 N 3.7
Ieri h: 09:50 sereno Sereno 26 17 57 1017 10 N/NE 7.4
Ieri h: 09:20 sereno Sereno 26 16 54 1018 10 N/NE 9.3
Ieri h: 08:50 sereno Sereno 24 16 60 1017 10 N/NE 11.1
Ieri h: 08:20 sereno Sereno 23 17 68 1017 10 N 9.3
Ieri h: 07:50 sereno Sereno 22 17 73 1017 10 N/NE 9.3
Ieri h: 07:20 sereno Sereno 21 17 77 1017 10 N/NE 7.4
Ieri h: 06:50 sereno Sereno 21 16 73 1017 10 N/NE 7.4
Ieri h: 06:20 sereno Sereno 21 17 77 1017 10 N 7.4
Ieri h: 05:50 sereno Sereno 22 17 73 1017 10 N 11.1
Ieri h: 05:20 sereno Sereno 21 17 77 1017 10 N 9.3
Ieri h: 04:50 sereno Sereno 21 16 73 1017 10 N/NE 7.4
Ieri h: 04:20 sereno Sereno 21 16 73 1017 10 N/NE 7.4
Ieri h: 03:50 sereno Sereno 21 17 77 1017 10 N/NE 11.1
Ieri h: 03:20 sereno Sereno 21 16 73 1017 10 N 9.3
Ieri h: 02:50 sereno Sereno 20 16 77 1017 10 N/NE 7.4
Ieri h: 02:20 sereno Sereno 21 17 77 1017 10 N/NE 11.1
Ieri h: 01:50 sereno Sereno 22 17 73 1017 10 N 7.4
Ieri h: 00:50 sereno Sereno 21 17 77 1018 10 N 13